User: anonymous   Login
Location: Unspecified
(0.0000°N, 0.0000°E)
Time: 02:19:33
(UTC+00:00)
Language:

COSMOS 2468 - Orbit

View from above orbital plane
View from above orbital plane
View from above satellite
View from above satellite

Ground track
Ground track

The orbit data is extracted from the following two-line orbital elements,

1 37154U 10043C   14331.79520378  .00000079  00000-0  49839-3 0  3290
2 37154 082.4625 183.5045 0013596 164.6958 195.4536 12.42892603191470
Epoch (UTC): 27 November 2014 19:05:05
Eccentricity: 0.0013596
inclination: 82.4625°
perigee height: 1483 km
apogee height: 1505 km
right ascension of ascending node: 183.5045°
argument of perigee: 164.6958°
revolutions per day: 12.42892603
mean anomaly at epoch: 195.4536°
orbit number at epoch: 19147

The dashed part of the orbit path shows where the satellite is in the earth's shadow,  

DLR